Regional Weather Roundup
Issued by NWS

Home | Current Version | Previous Version | Text Only | Print | Product List | Glossary On
Versions: 1 2 3 4 5 6 7 8 9 10 11 12 13 14 15 16 17 18 19 20 21 22 23 24 25 26 27 28 29 30 31 32 33 34 35 36 37 38 39 40 41 42 43 44 45 46 47 48 49 50
000
ASUS43 KLSX 291707
RWRMO

WEATHER SUMMARY FOR MISSOURI
NATIONAL WEATHER SERVICE SPRINGFIELD MO
1200 PM CDT MON SEP 29 2014

NOTE: "FAIR" INDICATES FEW OR NO CLOUDS BELOW 12,000 FEET WITH NO
       SIGNIFICANT WEATHER AND/OR OBSTRUCTIONS TO VISIBILITY.
       CURRENT SKY AND/OR WEATHER CONDITIONS ARE NOT AVAILABLE FOR
       CHILLICOTHE AND FARMINGTON.

MOZ001>031-035>038-043-044-053-054-291800-
...NORTHERN AND WESTERN MISSOURI...

CITY           SKY/WX    TMP DP  RH WIND       PRES   REMARKS
KANSAS CTY INT MOSUNNY   80  61  52 VRB3      30.09S
KANSAS C DTWN  MOSUNNY   81  61  50 SW3       30.07F
LEE`S SUMMIT   SUNNY     81  60  48 S5        30.09F
ST JOSEPH      SUNNY     81  57  43 VRB5      30.08S
CHILLICOTHE      N/A     82  58  43 E3        30.08F
KIRKSVILLE     SUNNY     82  57  42 W7        30.08F

$$
MOZ066>068-077>081-088>096-101>105-291800-
...SOUTHWEST MISSOURI...

CITY           SKY/WX    TMP DP  RH WIND       PRES   REMARKS
SPRINGFIELD    SUNNY     82  60  47 N5        30.08F
JOPLIN         SUNNY     81  62  52 VRB3      30.08F

$$
MOZ032>034-039>042-045>050-055>058-069>072-291800-
...CENTRAL MISSOURI...

CITY           SKY/WX    TMP DP  RH WIND       PRES   REMARKS
COLUMBIA       SUNNY     80  58  46 VRB3      30.08F
JEFFERSON CITY SUNNY     81  53  37 CALM      30.07F
ROLLA          SUNNY     82  53  36 VRB3      30.07F
SEDALIA        SUNNY     84  59  42 VRB3      30.08F
OSAGE BEACH    SUNNY     81  57  44 CALM      30.08F

$$
MOZ051-052-059>065-291800-
...EAST CENTRAL MISSOURI...

CITY           SKY/WX    TMP DP  RH WIND       PRES   REMARKS
ST LOUIS INTL  SUNNY     84  57  39 NW3       30.06F
SPIRIT OF STL  SUNNY     81  56  42 CALM      30.05F
ST CHARLES     SUNNY     81  59  47 W6        30.05F

$$
MOZ072>076-082>087-097>100-106>115-291800-
...SOUTH CENTRAL AND SOUTHEAST MISSOURI...

CITY           SKY/WX    TMP DP  RH WIND       PRES   REMARKS
CAPE GIRARDEAU SUNNY     83  56  39 NE6       30.04F
FARMINGTON     SUNNY     81  54  39 NW5       30.09F
POPLAR BLUFF   SUNNY     83  54  36 NE8       30.03F
WEST PLAINS    PTSUNNY   81  57  43 VRB3      30.09F

$$


USA.gov is the U.S. government's official web portal to all federal, state and local government web resources and services.